Location: Mt. Bigelow
(32.4165°N, 110.7345°W)
Time: 19:12:31
(UTC-07:00)

ISS - Visible Passes

Search period start: 23 February 2018 00:00
Search period end: 05 March 2018 00:00
Orbit: 402 x 407 km, 51.6° (Epoch: 24 February)

Date Brightness Start Highest point End Pass type
(mag) Time Alt. Az. Time Alt. Az. Time Alt. Az.
24 Feb -2.1 06:11:34 10° SSW 06:14:33 34° SE 06:17:33 10° ENE visible
25 Feb -0.9 05:20:25 10° SSE 05:22:30 16° SE 05:24:35 10° E visible
26 Feb -3.9 06:03:25 11° SW 06:06:30 72° NW 06:09:45 10° NE visible
27 Feb -3.1 05:14:09 46° SE 05:14:18 47° SE 05:17:27 10° ENE visible
28 Feb -0.2 04:24:38 10° ENE 04:24:38 10° ENE 04:24:43 10° ENE visible
28 Feb -2.6 05:57:20 20° WNW 05:58:33 26° NW 06:01:21 10° NNE visible
01 Mar -2.2 05:07:36 29° NNE 05:07:36 29° NNE 05:09:25 10° NE visible
02 Mar -1.6 05:50:24 12° NW 05:50:43 12° NNW 05:52:11 10° N visible
03 Mar -1.0 05:00:23 12° N 05:00:23 12° N 05:00:48 10° NNE visible
